Weather History for Alexandria, LA

Change the Weather History Date:

Monday, January 20, 2003

  Actual Average Record
Temperature  
Mean Temperature 56 °F 49 °F  
Max Temperature 69 °F 59 °F 87 °F (1895)
Min Temperature 42 °F 38 °F 15 °F (1940)
Degree Days  
Heating Degree Days 10 16  
Month to date heating degree days 320  
Since 1 July heating degree days 1109  
Growing Degree Days 6 (Base 50)    
Moisture  
Dew Point 54 °F    
Average Humidity 82    
Maximum Humidity 100    
Minimum Humidity 64    
Precipitation  
Precipitation 0.00 in 0.17 in 3.60 in (1979)
Month to date precipitation 3.12  
Year to date precipitation 3.12  
Snow  
Snow 0.00 in - 2.00 in (1978)
Month to date snowfall  
Since 1 July snowfall  
Snow Depth -    
Sea Level Pressure  
Sea Level Pressure 30.14 in    
Wind  
Wind Speed 10 mph (South)    
Max Wind Speed 18 mph    
Max Gust Speed 23 mph    
Visibility 9 miles    
Events      
T = Trace of Precipitation, MM = Missing Value Source: NWS Daily Summary

Daily Weather History Graph

Daily Weather History Graph

Search for Another Location

Airport:

Trip Planner

Search our weather history database for the weather conditions in past years. The results will help you decide how hot, cold, wet, or windy it might be!

Date:

Astronomy

Jan. 20, 2003 Rise Set
Actual Time 7:08 AM CST 5:34 PM CST
Civil Twilight 6:42 AM CST 6:00 PM CST
Nautical Twilight 6:12 AM CST 6:29 PM CST
Astronomical Twilight 5:43 AM CST 6:58 PM CST
Moon 8:07 PM CST (1/20) 9:01 AM CST (1/20)
Length of Visible Light 11h 17m
Length of Day
10h 25m
Waning Gibbous, 94% of the Moon is Illuminated
Jan 20
Waning Gibbous
Jan 25
Last Quarter
Feb 1
New
Feb 9
First Quarter
Feb 16
Full

Hourly Weather History & Observations

Time (CST) Temp. Windchill Dew Point Humidity Pressure Visibility Wind Dir Wind Speed Gust Speed Precip Events Conditions
12:53 AM 48.9 °F - 46.0 °F 90% 30.28 in 10.0 mi SSE 4.6 mph - N/A   Overcast
1:53 AM 48.9 °F - 46.9 °F 93% 30.28 in 10.0 mi South 5.8 mph - N/A   Overcast
2:53 AM 44.1 °F 39.5 °F 44.1 °F 100% 30.27 in 7.0 mi SE 8.1 mph - N/A   Scattered Clouds
3:53 AM 42.1 °F 36.6 °F 42.1 °F 100% 30.25 in 4.0 mi SE 9.2 mph - N/A   Partly Cloudy
4:26 AM 42.8 °F 38.6 °F 42.8 °F 100% 30.22 in 2.5 mi SE 6.9 mph - N/A   Partly Cloudy
4:53 AM 42.1 °F 38.4 °F 42.1 °F 100% 30.23 in 3.0 mi ESE 5.8 mph - N/A   Partly Cloudy
5:53 AM 44.1 °F 39.5 °F 44.1 °F 100% 30.23 in 4.0 mi SE 8.1 mph - N/A   Mostly Cloudy
6:53 AM 44.1 °F 40.1 °F 44.1 °F 100% 30.22 in 3.0 mi SE 6.9 mph - N/A   Mostly Cloudy
7:53 AM 46.9 °F - 46.9 °F 100% 30.22 in 3.0 mi SE 4.6 mph - N/A   Scattered Clouds
8:46 AM 53.6 °F - 51.8 °F 94% 30.21 in 10.0 mi SE 5.8 mph - N/A   Mostly Cloudy
8:53 AM 54.0 °F - 52.0 °F 93% 30.23 in 10.0 mi ESE 5.8 mph - N/A   Mostly Cloudy
9:46 AM 62.6 °F - 55.4 °F 77% 30.22 in 10.0 mi SSW 16.1 mph - N/A   Mostly Cloudy
9:53 AM 63.0 °F - 55.9 °F 78% 30.23 in 10.0 mi SSW 15.0 mph 23.0 mph N/A   Scattered Clouds
10:53 AM 64.9 °F - 55.9 °F 73% 30.22 in 10.0 mi SW 17.3 mph - N/A   Mostly Cloudy
11:42 AM 66.2 °F - 57.2 °F 73% 30.18 in 10.0 mi SW 9.2 mph - N/A   Overcast
11:53 AM 66.9 °F - 57.0 °F 70% 30.18 in 10.0 mi SW 13.8 mph - N/A   Overcast
12:44 PM 69.8 °F - 57.2 °F 64% 30.13 in 10.0 mi SSW 17.3 mph 21.9 mph N/A   Overcast
12:53 PM 68.0 °F - 57.0 °F 68% 30.13 in 10.0 mi SW 18.4 mph 23.0 mph N/A   Overcast
1:01 PM 69.8 °F - 57.2 °F 64% 30.11 in 10.0 mi SSW 16.1 mph 23.0 mph N/A   Overcast
1:53 PM 69.1 °F - 57.9 °F 68% 30.10 in 10.0 mi SSW 17.3 mph - N/A   Mostly Cloudy
2:53 PM 69.1 °F - 57.9 °F 68% 30.08 in 10.0 mi South 15.0 mph - N/A   Overcast
3:53 PM 69.1 °F - 57.9 °F 68% 30.06 in 10.0 mi SSW 15.0 mph 20.7 mph N/A   Mostly Cloudy
4:53 PM 66.9 °F - 57.9 °F 73% 30.06 in 10.0 mi SSW 17.3 mph 20.7 mph N/A   Mostly Cloudy
5:12 PM 66.2 °F - 57.2 °F 73% 30.04 in 10.0 mi SSW 16.1 mph - N/A   Overcast
5:26 PM 66.2 °F - 57.2 °F 73% 30.04 in 10.0 mi SSW 15.0 mph 20.7 mph N/A   Overcast
5:53 PM 64.0 °F - 57.9 °F 80% 30.05 in 10.0 mi South 12.7 mph - N/A   Mostly Cloudy
6:05 PM 64.4 °F - 57.2 °F 77% 30.04 in 10.0 mi SSW 13.8 mph - N/A   Mostly Cloudy
6:30 PM 64.4 °F - 57.2 °F 77% 30.04 in 10.0 mi South 10.4 mph - N/A   Mostly Cloudy
6:53 PM 63.0 °F - 57.9 °F 84% 30.05 in 10.0 mi South 11.5 mph - N/A   Overcast
7:53 PM 63.0 °F - 57.9 °F 84% 30.05 in 10.0 mi South 13.8 mph - N/A   Overcast
8:30 PM 62.6 °F - 57.2 °F 82% 30.03 in 10.0 mi SSW 13.8 mph 19.6 mph N/A   Scattered Clouds
8:53 PM 63.0 °F - 57.9 °F 84% 30.03 in 10.0 mi SSW 12.7 mph - N/A   Partly Cloudy
9:53 PM 63.0 °F - 57.9 °F 84% 30.02 in 10.0 mi SSW 13.8 mph 23.0 mph N/A   Clear
10:53 PM 63.0 °F - 57.9 °F 84% 30.01 in 10.0 mi SSW 13.8 mph - N/A   Clear
11:53 PM 63.0 °F - 57.9 °F 84% 30.01 in 10.0 mi SSW 13.8 mph - N/A   Mostly Cloudy